Temp
3 3 3 3 3 3 3 3 3 3 3 3 2 2 2 2 2 2 2 2 2 2 2 1 1 1 1 1 1 1 1 1 1 1 1 1 1 1 1 1 1 1 1 1 1 1 1 1 1 1 1 1
3 3 3 3 3 3 3 3 3 3 3 3 3 3 2 2 2 2 2 2 2 2 2 1 1 1 1 1 1 1 1 1 1 1 1 1 1 1 1 1 1 1 0 0 0 0 0 0 0 0 0 0
2 2 2 3 2 2 3 3 3 3 3 3 3 3 3 3 3 2 2 2 2 2 2 1 1 1 1 1 1 1 1 1 1 1 1 1 1 1 1 1 1 1 1 0 0 0 0 0 -0 -0 -0 -0
2 2 2 2 2 2 2 2 3 3 3 3 3 3 3 3 3 3 3 2 2 2 2 2 1 1 1 1 1 1 1 1 1 1 1 1 1 1 1 1 1 1 1 0 0 0 -0 -0 -0 -0 -0 -0
2 2 2 2 2 2 2 2 2 3 3 2 2 2 2 2 2 2 2 2 2 2 2 1 1 1 1 1 1 1 1 1 1 1 1 1 0 0 0 0 0 0 0 0 0 0 -0 -0 -0 -0 -0 -1
2 2 2 2 2 2 2 2 2 2 2 2 2 2 2 2 2 2 2 1 1 1 1 1 1 1 1 1 0 0 0 0 0 0 0 0 0 0 -0 -0 -0 -0 -0 -0 -0 -0 -0 -0 -0 -1 -1 -1
2 2 2 2 2 2 2 2 2 2 2 2 2 2 2 1 1 1 1 1 1 1 0 0 0 0 0 0 -0 -0 -0 -0 -0 -0 -0 -1 -1 -1 -1 -1 -1 -1 -1 -1 -1 -1 -1 -1 -1 -1 -1 -1
3 2 2 2 2 2 2 2 2 2 3 3 2 2 1 1 1 0 0 0 0 0 -0 -0 -0 -0 -1 -1 -1 -1 -1 -1 -1 -1 -1 -1 -1 -1 -1 -1 -1 -1 -1 -1 -1 -1 -1 -2 -2 -2 -2 -2
3 2 2 3 3 3 3 3 3 3 2 2 2 1 1 1 0 0 0 -0 -0 -0 -1 -1 -1 -1 -1 -1 -1 -1 -1 -1 -1 -1 -0 -0 -1 -1 -1 -1 -1 -1 -1 -1 -1 -1 -1 -2 -2 -2 -2 -2
3 3 3 3 3 3 3 3 2 2 2 1 1 1 1 0 0 0 -0 -0 -1 -1 -1 -1 -1 -1 -1 -1 -1 -1 -1 -1 -1 -1 -1 -1 -1 -1 -1 -1 -1 -1 -1 -1 -1 -2 -2 -2 -2 -2 -2 -2
2 3 3 3 3 2 2 2 1 1 1 1 1 1 0 0 0 -0 -0 -0 -0 -1 -1 -1 -1 -1 -1 -1 -1 -1 -1 -1 -1 -1 -1 -1 -1 -1 -1 -1 -1 -2 -2 -2 -2 -2 -2 -2 -2 -2 -2 -2
2 2 2 2 2 1 1 1 1 1 0 0 0 -0 -0 -0 -0 -0 -0 -0 -1 -1 -1 -1 -1 -1 -1 -1 -1 -1 -1 -1 -1 -1 -1 -1 -1 -1 -1 -2 -2 -2 -2 -2 -2 -2 -2 -2 -2 -3 -3 -3
2 2 2 1 1 1 1 0 0 0 0 0 -0 -0 -0 -1 -0 -0 -1 -1 -1 -1 -1 -1 -1 -1 -1 -1 -1 -1 -1 -1 -1 -1 -1 -1 -1 -1 -2 -2 -2 -2 -2 -2 -2 -2 -2 -2 -2 -2 -3 -3
2 2 1 1 0 0 0 0 -0 -0 -0 -0 -0 -1 -1 -1 -1 -1 -1 -1 -1 -1 -1 -1 -1 -1 -1 -1 -1 -1 -1 -1 -1 -1 -1 -1 -1 -1 -2 -2 -2 -2 -2 -2 -2 -2 -2 -2 -2 -3 -3 -3
2 1 1 0 0 0 -0 -0 -0 -0 -1 -1 -1 -1 -2 -1 -1 -1 -1 -2 -2 -2 -2 -2 -2 -1 -1 -2 -2 -2 -1 -2 -2 -2 -2 -2 -2 -2 -2 -2 -2 -2 -3 -3 -3 -3 -3 -3 -3 -3 -3 -3
1 1 1 0 0 -0 -0 -0 -1 -1 -1 -1 -1 -2 -2 -2 -1 -1 -2 -2 -2 -2 -2 -1 -1 -1 -1 -1 -1 -1 -1 -1 -2 -2 -2 -2 -2 -2 -2 -3 -3 -3 -3 -3 -3 -4 -4 -4 -4 -4 -4 -4
1 1 0 0 -0 -0 -1 -1 -1 -1 -1 -1 -1 -1 -1 -1 -1 -2 -2 -2 -1 -1 -1 -1 -1 -1 -1 -1 -1 -1 -1 -1 -1 -2 -2 -2 -2 -2 -2 -2 -2 -3 -3 -3 -3 -4 -4 -4 -4 -5 -5 -5
1 1 0 0 -0 -0 -1 -1 -1 -1 -1 -1 -1 -2 -2 -2 -2 -2 -1 -1 -1 -1 -1 -1 -1 -1 -1 -1 -1 -1 -1 -1 -1 -1 -1 -1 -2 -2 -2 -2 -2 -2 -2 -3 -3 -3 -4 -4 -5 -5 -6 -6
1 1 0 0 0 -0 -0 -1 -1 -1 -1 -2 -2 -2 -2 -2 -2 -1 -1 -1 -1 -1 -1 -1 -1 -1 -1 -1 -1 -1 -1 -1 -1 -1 -1 -1 -1 -2 -2 -2 -2 -2 -2 -3 -3 -4 -4 -5 -5 -6 -6 -6
1 0 0 0 -0 -0 -1 -1 -1 -2 -2 -2 -2 -2 -2 -2 -1 -1 -2 -2 -2 -2 -2 -2 -2 -1 -1 -1 -1 -1 -1 -1 -1 -1 -1 -2 -2 -2 -2 -2 -2 -3 -3 -3 -4 -4 -5 -5 -6 -6 -7 -7
0 0 0 -0 -0 -1 -1 -2 -2 -2 -2 -2 -2 -2 -2 -2 -2 -3 -3 -3 -3 -3 -3 -2 -2 -2 -2 -1 -1 -1 -1 -2 -2 -2 -2 -2 -3 -3 -3 -3 -3 -3 -4 -4 -4 -5 -6 -6 -7 -7 -8 -9
-0 -0 -1 -1 -1 -1 -2 -2 -2 -2 -2 -2 -2 -2 -3 -3 -3 -3 -3 -3 -3 -3 -3 -2 -2 -2 -2 -2 -2 -2 -2 -2 -2 -3 -3 -3 -4 -4 -4 -4 -4 -4 -4 -5 -6 -6 -7 -8 -8 -9 -10 -10
-0 -1 -1 -1 -2 -2 -2 -2 -2 -2 -2 -3 -3 -3 -3 -3 -3 -3 -3 -3 -3 -2 -2 -2 -2 -2 -2 -2 -2 -2 -2 -3 -3 -3 -3 -4 -4 -4 -5 -4 -5 -5 -5 -6 -6 -7 -8 -9 -10 -10 -11 -12
-1 -1 -2 -2 -2 -2 -2 -2 -2 -3 -3 -3 -4 -4 -3 -3 -3 -3 -3 -2 -2 -2 -2 -2 -2 -2 -2 -2 -3 -3 -3 -3 -3 -3 -3 -3 -4 -4 -5 -5 -6 -6 -6 -6 -7 -8 -9 -10 -10 -11 -12 -13
-1 -2 -2 -2 -2 -2 -2 -2 -2 -3 -3 -4 -4 -4 -3 -3 -3 -3 -2 -2 -2 -2 -2 -2 -2 -3 -3 -3 -3 -3 -3 -3 -3 -4 -4 -5 -6 -6 -7 -7 -7 -7 -7 -8 -8 -8 -9 -10 -11 -11 -13 -14
-1 -1 -1 -2 -2 -2 -2 -2 -3 -3 -3 -4 -4 -3 -3 -3 -3 -2 -2 -2 -2 -2 -3 -3 -3 -3 -3 -3 -3 -4 -4 -5 -5 -6 -6 -7 -7 -8 -9 -9 -9 -10 -10 -10 -10 -10 -10 -10 -11 -12 -13 -14
-1 -1 -1 -1 -2 -2 -2 -3 -3 -3 -3 -3 -3 -3 -3 -3 -3 -3 -3 -3 -3 -3 -3 -3 -3 -3 -4 -4 -4 -5 -6 -7 -7 -7 -8 -8 -9 -10 -11 -12 -12 -12 -12 -12 -12 -12 -12 -12 -12 -12 -13 -14
-1 -1 -2 -2 -2 -2 -3 -3 -4 -4 -4 -3 -3 -3 -3 -3 -2 -2 -2 -2 -3 -3 -3 -4 -4 -4 -5 -5 -6 -6 -7 -8 -8 -9 -9 -10 -11 -11 -12 -13 -14 -14 -15 -15 -15 -14 -14 -14 -14 -14 -14 -14
-1 -2 -2 -2 -3 -3 -3 -4 -4 -4 -3 -3 -3 -3 -2 -2 -2 -2 -2 -3 -3 -4 -4 -4 -5 -5 -6 -6 -7 -8 -8 -9 -10 -11 -11 -12 -12 -13 -13 -14 -15 -16 -16 -17 -17 -17 -16 -16 -16 -16 -16 -16
-2 -2 -3 -3 -3 -3 -3 -3 -3 -3 -3 -3 -2 -2 -2 -2 -2 -3 -3 -4 -4 -4 -5 -5 -5 -6 -7 -8 -8 -9 -10 -11 -12 -13 -13 -13 -14 -14 -15 -15 -16 -16 -17 -17 -18 -18 -18 -19 -18 -18 -18 -18
-2 -3 -3 -3 -3 -3 -3 -3 -3 -2 -2 -2 -2 -2 -3 -3 -3 -4 -4 -4 -5 -5 -5 -6 -7 -7 -8 -9 -10 -11 -12 -13 -13 -14 -14 -15 -15 -15 -16 -16 -16 -16 -17 -17 -18 -18 -19 -19 -20 -20 -20 -19
Height
3137 3136 3134 3133 3132 3130 3129 3127 3126 3125 3123 3122 3121 3119 3118 3117 3115 3114 3113 3112 3110 3109 3108 3106 3105 3103 3101 3100 3098 3096 3095 3093 3092 3090 3089 3088 3086 3085 3084 3082 3081 3079 3078 3076 3075 3073 3072 3070 3069 3068 3066 3065
3136 3135 3133 3131 3130 3129 3127 3126 3125 3123 3122 3121 3119 3118 3117 3115 3114 3112 3111 3110 3108 3107 3105 3104 3102 3100 3099 3097 3095 3093 3092 3090 3089 3087 3086 3084 3083 3081 3080 3078 3076 3075 3074 3072 3071 3069 3068 3066 3065 3064 3063 3061
3135 3133 3132 3130 3129 3128 3126 3125 3123 3122 3121 3119 3118 3116 3115 3113 3112 3111 3109 3108 3107 3105 3103 3101 3100 3098 3096 3094 3092 3090 3089 3087 3085 3084 3082 3081 3079 3077 3076 3074 3072 3071 3070 3068 3067 3065 3064 3062 3060 3059 3058 3057
3134 3133 3131 3130 3128 3127 3125 3123 3122 3121 3119 3118 3116 3115 3113 3111 3110 3109 3108 3106 3105 3103 3101 3099 3097 3095 3093 3091 3089 3087 3085 3084 3082 3080 3078 3077 3075 3073 3072 3070 3068 3067 3066 3064 3063 3061 3060 3058 3056 3055 3054 3052
3133 3132 3130 3129 3127 3125 3124 3122 3121 3119 3118 3116 3115 3113 3112 3110 3108 3107 3105 3103 3102 3100 3098 3096 3094 3092 3090 3088 3086 3084 3083 3081 3079 3077 3075 3073 3071 3069 3068 3066 3064 3063 3062 3061 3059 3058 3056 3054 3052 3050 3049 3047
3132 3131 3129 3127 3126 3124 3122 3121 3119 3118 3116 3115 3113 3112 3110 3108 3106 3104 3103 3101 3099 3098 3096 3094 3092 3090 3088 3086 3084 3081 3080 3079 3077 3074 3072 3070 3068 3066 3064 3062 3060 3059 3058 3057 3055 3053 3051 3049 3047 3045 3043 3041
3130 3129 3127 3125 3124 3122 3121 3119 3118 3116 3114 3113 3111 3110 3108 3106 3104 3103 3101 3099 3097 3096 3094 3091 3089 3087 3085 3083 3080 3078 3076 3075 3073 3070 3068 3067 3064 3062 3060 3058 3056 3054 3052 3051 3050 3048 3046 3044 3042 3040 3038 3036
3128 3127 3125 3123 3122 3121 3119 3117 3116 3114 3112 3111 3110 3108 3106 3105 3103 3101 3099 3097 3095 3093 3091 3088 3086 3083 3081 3079 3076 3073 3071 3069 3068 3066 3064 3062 3060 3058 3056 3053 3052 3050 3047 3046 3044 3042 3041 3039 3036 3034 3032 3030
3127 3125 3124 3123 3121 3120 3118 3116 3114 3112 3110 3109 3108 3106 3104 3102 3100 3098 3096 3093 3091 3089 3086 3084 3082 3079 3077 3074 3072 3069 3066 3064 3062 3060 3058 3056 3055 3053 3051 3048 3047 3045 3042 3040 3038 3036 3034 3033 3031 3028 3026 3024
3126 3124 3123 3122 3120 3118 3116 3114 3112 3110 3108 3106 3104 3103 3100 3098 3096 3094 3092 3089 3087 3085 3082 3080 3078 3075 3073 3070 3068 3065 3062 3060 3058 3055 3053 3051 3048 3047 3045 3043 3041 3039 3036 3033 3031 3029 3028 3026 3024 3022 3020 3018
3125 3124 3122 3120 3119 3117 3115 3113 3110 3108 3106 3103 3101 3099 3097 3095 3092 3090 3088 3086 3083 3081 3078 3076 3073 3071 3068 3066 3063 3060 3057 3055 3053 3050 3047 3045 3043 3041 3039 3037 3035 3032 3029 3026 3024 3022 3020 3018 3016 3014 3013 3011
3124 3123 3121 3119 3117 3115 3113 3110 3108 3106 3103 3101 3099 3097 3094 3092 3089 3087 3084 3082 3079 3077 3074 3071 3068 3066 3063 3061 3058 3055 3052 3049 3047 3044 3042 3039 3037 3035 3033 3031 3028 3026 3023 3020 3017 3014 3012 3010 3008 3007 3005 3003
3123 3121 3119 3117 3115 3113 3110 3108 3106 3103 3101 3098 3096 3093 3091 3088 3086 3084 3081 3078 3076 3073 3070 3068 3065 3062 3059 3056 3053 3050 3048 3045 3042 3039 3037 3034 3032 3029 3027 3024 3022 3019 3017 3014 3011 3008 3006 3004 3001 3000 2998 2996
3122 3120 3117 3115 3113 3110 3108 3106 3103 3101 3098 3096 3093 3091 3088 3086 3083 3081 3078 3076 3073 3070 3068 3065 3062 3060 3057 3053 3050 3046 3044 3041 3038 3035 3032 3029 3027 3024 3021 3019 3016 3013 3010 3008 3005 3003 3000 2998 2995 2993 2990 2988
3120 3117 3115 3113 3111 3108 3106 3104 3102 3099 3097 3094 3092 3089 3087 3084 3081 3078 3076 3073 3070 3068 3065 3062 3059 3056 3053 3050 3046 3043 3040 3036 3033 3030 3027 3024 3021 3017 3015 3012 3009 3006 3003 3001 2998 2996 2994 2991 2988 2986 2983 2981
3118 3115 3113 3111 3109 3107 3105 3103 3100 3098 3096 3093 3090 3088 3085 3082 3079 3076 3073 3070 3068 3065 3061 3058 3055 3052 3048 3045 3041 3038 3035 3032 3029 3026 3022 3019 3015 3012 3009 3005 3002 2999 2996 2993 2991 2988 2986 2983 2981 2978 2976 2974
3116 3114 3112 3110 3108 3106 3104 3102 3100 3097 3094 3091 3088 3085 3082 3079 3076 3073 3070 3067 3064 3060 3057 3053 3050 3046 3043 3039 3036 3033 3030 3027 3024 3021 3018 3014 3011 3008 3004 3000 2997 2994 2991 2987 2984 2981 2978 2975 2972 2970 2968 2966
3115 3113 3112 3110 3107 3105 3103 3100 3098 3095 3092 3088 3085 3082 3079 3076 3073 3070 3067 3064 3061 3057 3053 3049 3046 3042 3039 3035 3031 3028 3025 3022 3019 3015 3011 3008 3005 3002 2998 2995 2991 2988 2985 2982 2979 2975 2972 2968 2965 2962 2959 2955
3114 3112 3110 3107 3105 3103 3100 3098 3095 3092 3089 3086 3083 3080 3077 3074 3071 3067 3064 3061 3057 3053 3050 3046 3042 3038 3035 3031 3027 3023 3020 3016 3013 3009 3005 3001 2998 2994 2991 2988 2984 2981 2978 2974 2971 2968 2965 2961 2958 2955 2950 2946
3112 3109 3107 3104 3102 3100 3098 3095 3093 3090 3087 3084 3081 3078 3075 3072 3068 3065 3061 3057 3053 3049 3045 3042 3038 3034 3030 3026 3022 3018 3014 3010 3006 3002 2999 2994 2990 2986 2983 2979 2976 2973 2970 2967 2964 2960 2957 2953 2950 2946 2941 2938
3109 3107 3105 3102 3100 3097 3095 3093 3090 3087 3084 3081 3078 3075 3072 3069 3065 3061 3057 3052 3048 3044 3041 3037 3033 3029 3025 3020 3016 3012 3008 3004 3000 2995 2991 2987 2983 2979 2975 2971 2967 2965 2962 2959 2956 2952 2949 2945 2941 2937 2933 2930
3107 3105 3102 3100 3097 3094 3092 3090 3087 3084 3081 3079 3075 3072 3068 3064 3061 3057 3052 3048 3044 3040 3036 3032 3028 3024 3019 3015 3010 3005 3001 2997 2993 2989 2984 2980 2976 2971 2967 2963 2959 2955 2952 2949 2946 2943 2939 2936 2933 2929 2926 2923
3105 3102 3099 3097 3094 3092 3090 3088 3086 3083 3079 3075 3072 3068 3064 3060 3056 3052 3048 3044 3040 3036 3032 3028 3023 3019 3014 3009 3004 3000 2995 2991 2987 2983 2979 2974 2971 2966 2960 2957 2952 2948 2945 2942 2938 2935 2932 2928 2925 2922 2919 2915
3102 3100 3097 3095 3093 3091 3088 3086 3084 3081 3076 3072 3067 3064 3059 3055 3051 3047 3043 3039 3036 3032 3027 3023 3018 3013 3009 3004 2999 2994 2990 2986 2981 2977 2973 2968 2964 2961 2956 2952 2948 2943 2940 2937 2934 2931 2928 2924 2920 2917 2914 2910
3102 3099 3097 3094 3092 3089 3086 3083 3080 3076 3072 3068 3064 3059 3055 3051 3047 3043 3039 3035 3031 3027 3022 3017 3013 3008 3004 2999 2995 2990 2986 2981 2977 2973 2969 2965 2960 2956 2951 2947 2943 2938 2934 2931 2928 2926 2924 2920 2916 2913 2911 2906
3101 3098 3096 3093 3090 3086 3083 3079 3075 3071 3067 3063 3059 3056 3052 3048 3044 3040 3036 3031 3027 3022 3018 3013 3009 3004 3000 2996 2991 2987 2983 2978 2974 2970 2965 2962 2958 2953 2947 2942 2937 2932 2927 2923 2920 2916 2913 2912 2910 2908 2907 2903
3100 3097 3094 3090 3087 3084 3080 3076 3072 3067 3063 3060 3056 3053 3050 3046 3041 3037 3032 3027 3022 3018 3014 3009 3004 3000 2995 2991 2987 2983 2978 2974 2970 2966 2961 2956 2952 2949 2944 2938 2932 2926 2921 2916 2913 2909 2905 2901 2900 2899 2899 2898
3098 3095 3091 3088 3085 3081 3077 3073 3069 3065 3061 3057 3054 3050 3046 3041 3037 3032 3027 3022 3018 3013 3009 3004 3000 2995 2991 2986 2982 2978 2973 2969 2965 2960 2955 2951 2946 2942 2938 2933 2928 2922 2916 2910 2905 2902 2898 2894 2891 2887 2886 2887
3095 3092 3088 3085 3082 3079 3075 3072 3068 3064 3059 3055 3050 3046 3041 3036 3031 3027 3022 3018 3014 3009 3005 3000 2996 2992 2987 2983 2979 2974 2970 2965 2960 2955 2950 2946 2941 2936 2932 2928 2924 2919 2914 2909 2902 2897 2892 2887 2883 2880 2877 2876
3093 3090 3087 3084 3080 3077 3074 3070 3065 3061 3056 3052 3047 3042 3038 3033 3029 3024 3020 3016 3012 3007 3002 2998 2993 2989 2985 2980 2976 2971 2965 2960 2955 2951 2946 2941 2937 2933 2929 2925 2922 2919 2915 2910 2905 2900 2894 2888 2882 2878 2875 2871
3091 3088 3085 3082 3079 3075 3071 3066 3062 3057 3053 3048 3044 3039 3035 3031 3027 3023 3019 3014 3009 3005 3000 2995 2990 2986 2981 2976 2971 2966 2961 2957 2952 2947 2942 2938 2934 2930 2927 2923 2920 2917 2914 2911 2907 2903 2898 2893 2888 2882 2877 2872
Wind_Speed
18 19 19 20 20 21 21 22 22 22 21 21 20 19 20 20 21 22 22 23 23 24 24 25 25 26 27 27 28 29 30 30 31 31 31 31 31 32 32 33 33 34 34 35 35 35 36 37 37 37 38 37
19 20 20 21 21 22 22 23 23 23 22 22 21 21 20 21 21 22 23 23 24 25 25 25 26 26 27 28 29 30 30 31 31 31 32 32 32 32 33 33 34 34 35 36 36 37 37 38 38 38 39 39
19 20 21 21 22 22 23 23 23 24 24 23 23 23 23 23 23 23 24 24 25 26 26 27 27 28 29 29 30 31 32 32 33 33 34 34 34 34 34 35 35 35 35 36 37 38 38 39 39 39 39 40
19 19 20 21 22 22 23 24 24 25 25 25 25 25 25 26 26 26 26 26 27 28 28 29 29 30 31 31 32 33 34 34 35 36 36 36 36 37 37 37 38 37 37 38 38 39 40 40 41 41 41 41
18 19 20 20 21 22 23 24 25 25 25 26 26 26 26 27 28 28 29 29 29 30 30 31 31 32 32 33 33 34 34 35 36 36 37 38 38 39 39 40 40 40 40 40 40 41 41 42 43 43 43 43
18 19 19 20 21 22 23 24 24 25 25 25 25 26 26 27 27 28 29 29 30 30 31 32 32 33 33 34 35 36 36 36 36 38 39 39 40 41 42 43 43 43 43 43 42 43 44 44 45 45 45 46
18 19 20 21 22 22 23 23 23 23 24 24 24 25 25 26 26 27 28 29 29 30 31 32 33 34 35 36 37 38 38 38 38 39 40 40 41 42 43 44 44 45 45 45 44 45 46 46 47 47 48 48
18 19 20 20 21 21 22 22 22 23 23 24 24 24 25 26 26 27 28 28 30 31 31 32 34 35 36 37 38 40 40 41 41 41 42 42 43 44 44 45 46 46 47 47 47 47 47 48 48 49 49 50
17 18 18 19 19 20 21 22 23 24 25 25 25 25 26 26 27 28 28 29 30 31 33 34 35 36 37 38 40 41 42 43 44 44 45 45 46 46 46 47 47 48 49 49 49 49 50 50 50 51 51 52
16 17 18 19 20 21 23 24 25 26 27 27 27 27 28 28 29 30 30 31 32 33 34 35 36 37 39 40 41 43 44 45 46 46 47 48 48 48 49 49 49 50 50 51 51 51 51 52 52 52 53 53
17 18 19 21 22 23 25 26 26 27 27 28 28 29 30 30 31 32 33 34 34 36 37 38 39 40 41 42 44 45 46 47 48 48 49 50 50 50 50 51 51 51 52 53 53 54 54 54 54 54 54 54
18 20 21 23 24 25 25 25 26 26 27 28 29 30 31 32 33 34 35 36 37 38 39 41 42 43 44 45 46 48 48 49 50 51 51 52 52 52 52 51 51 51 52 52 53 54 54 55 55 55 55 55
20 22 24 24 24 24 24 25 26 28 29 30 31 32 33 34 35 35 36 37 38 40 41 42 43 44 46 47 48 48 49 50 51 51 51 52 52 52 52 51 51 51 51 51 51 52 53 53 54 54 54 55
22 24 24 24 24 24 25 27 28 30 31 32 33 33 34 34 35 36 36 37 38 39 40 42 43 44 45 46 47 48 48 49 50 50 51 51 51 51 51 51 51 52 52 52 52 52 53 53 53 53 54 54
23 24 24 24 25 26 27 28 29 30 31 31 31 31 32 33 34 35 36 38 39 40 41 42 43 43 44 45 46 47 48 48 49 49 50 51 51 52 52 52 52 52 53 53 53 53 53 53 54 54 54 54
24 25 26 26 26 27 27 28 29 29 29 30 31 32 33 34 35 37 38 40 41 42 44 45 46 46 46 47 47 48 48 49 49 49 50 50 51 51 52 53 53 53 54 55 55 54 54 55 55 55 55 54
25 26 27 27 26 26 27 28 29 29 31 32 33 35 37 38 40 41 43 44 46 47 48 48 49 49 49 49 49 49 49 49 49 49 50 50 51 52 52 53 54 55 56 56 57 57 58 58 58 57 56 55
26 27 27 27 27 27 28 30 31 33 34 36 38 40 41 43 44 45 46 47 48 48 48 49 49 48 48 48 48 48 49 49 50 50 51 52 52 53 54 55 56 57 58 59 59 60 60 60 61 60 59 58
27 28 28 29 30 31 32 33 35 36 38 40 41 42 43 44 45 46 47 47 48 48 47 47 47 46 46 47 48 49 50 50 52 53 54 55 56 56 57 58 59 60 60 61 61 61 61 61 61 61 61 62
29 30 31 32 33 34 35 36 38 39 41 42 43 44 44 45 46 47 48 49 49 48 48 47 47 48 48 49 50 52 52 53 54 55 56 56 57 58 59 59 60 60 60 60 60 60 60 60 60 60 61 61
31 32 33 34 35 37 38 39 41 42 43 44 44 45 46 47 49 49 50 50 49 49 49 49 50 51 52 53 54 55 55 55 56 57 57 57 58 58 59 59 59 59 59 59 59 59 58 58 58 58 58 58
33 34 35 36 38 39 41 42 43 45 45 46 46 47 49 50 51 51 50 50 50 50 51 52 53 54 55 55 56 56 57 57 57 57 57 57 57 58 59 60 60 60 60 60 59 58 57 57 56 56 55 53
34 36 37 38 40 41 42 43 44 45 46 47 48 50 52 52 52 51 50 50 50 51 53 54 54 55 56 56 57 57 57 57 57 57 57 58 58 58 59 60 60 61 61 60 59 58 57 56 54 53 51 50
35 37 38 39 40 42 43 44 45 46 48 49 51 53 53 53 52 51 51 51 52 53 54 55 55 55 56 56 56 57 57 58 58 59 59 59 59 59 58 58 58 59 59 58 57 56 55 53 52 51 48 46
34 36 38 39 41 43 44 46 48 49 49 51 53 54 54 52 51 51 51 53 54 54 54 55 55 55 55 55 56 57 57 57 57 57 57 56 56 56 56 56 56 56 56 56 55 54 52 50 49 47 44 42
34 36 38 40 42 44 46 48 50 51 52 53 54 53 51 50 50 51 52 53 53 54 54 54 54 54 54 54 54 54 54 54 54 54 54 53 53 52 52 52 53 53 53 54 53 52 52 50 47 44 41 39
36 38 39 41 43 45 47 49 51 53 54 54 53 50 49 49 50 51 52 52 53 53 53 53 53 53 53 53 53 53 52 52 52 52 52 51 51 49 48 47 48 49 50 51 51 50 50 50 48 46 42 39
37 38 40 42 44 46 48 49 51 53 53 51 49 48 49 50 51 52 52 53 53 53 52 52 52 52 52 53 52 52 52 51 51 51 50 49 49 48 47 46 46 46 47 48 50 50 50 50 50 49 47 44
37 39 41 43 45 46 47 49 51 51 49 47 47 49 50 51 52 52 52 52 51 51 51 51 51 51 51 51 51 51 50 50 49 49 48 48 48 48 47 47 46 45 45 46 48 49 50 51 51 51 51 49
37 39 41 43 44 46 48 49 49 46 45 46 47 49 50 50 50 50 49 49 48 48 49 49 50 50 50 50 49 49 48 47 47 47 47 47 47 47 46 46 45 43 43 43 43 44 45 46 48 49 50 50
37 39 41 43 45 47 48 47 45 44 45 46 47 48 48 48 47 47 46 46 46 47 48 48 49 48 48 47 47 47 46 46 46 46 46 46 46 45 45 44 44 43 42 41 40 40 40 40 40 42 44 46
Wind_Direction
315 317 317 317 317 316 316 315 316 316 314 314 313 313 313 312 312 312 312 313 312 312 312 312 311 311 311 310 309 308 308 308 307 307 306 306 305 304 303 302 301 300 299 299 298 297 296 295 294 293 292 291
320 320 320 320 321 320 320 320 320 319 317 315 313 310 308 308 308 309 310 311 311 310 310 310 309 309 308 307 306 305 305 305 304 304 303 302 301 300 299 298 297 297 297 297 296 296 295 295 294 293 293 293
323 322 322 323 323 323 323 323 322 321 320 317 315 313 311 310 309 309 309 309 309 309 309 309 308 308 307 306 305 304 304 303 303 302 301 300 299 297 296 295 293 293 293 292 292 292 292 292 291 291 291 291
322 322 323 323 324 324 324 324 322 322 321 320 319 317 316 315 314 313 312 312 311 311 311 311 310 309 308 307 306 305 304 304 303 303 301 300 299 297 295 294 292 291 290 289 289 289 288 288 288 288 288 288
322 322 323 323 323 324 323 323 322 321 321 320 320 319 318 317 317 316 316 316 315 314 313 311 310 308 307 306 304 303 302 302 301 300 299 299 298 297 296 295 294 293 292 290 290 289 288 287 287 287 286 285
322 322 323 323 323 323 322 322 321 320 319 319 319 318 318 316 315 315 315 314 313 312 310 308 307 305 304 303 302 301 300 300 299 298 298 298 297 297 297 296 295 295 294 293 292 291 290 289 289 288 287 286
322 323 324 325 325 324 322 321 320 318 317 316 317 316 315 314 313 313 312 311 309 308 307 306 305 305 304 304 303 302 301 301 299 298 297 296 296 295 295 294 294 294 293 293 292 290 290 289 288 288 287 286
326 327 327 327 326 325 322 320 318 316 316 316 317 317 316 315 314 312 311 310 308 307 307 306 306 306 305 304 303 302 302 301 299 298 297 296 295 294 294 293 293 293 292 292 291 289 288 287 287 286 286 285
330 331 330 329 327 324 322 320 319 319 320 322 322 320 318 316 315 313 312 311 310 309 308 308 307 306 305 304 303 302 302 301 300 299 298 297 296 296 295 294 294 294 293 293 292 291 290 289 287 287 286 285
335 335 333 331 328 326 325 324 325 326 326 326 324 322 321 319 318 316 315 314 313 311 310 309 307 306 305 304 303 303 302 301 301 300 299 299 298 297 297 296 296 296 295 294 293 292 291 290 289 287 287 286
339 337 334 332 331 331 332 331 331 330 328 326 326 325 323 322 321 320 319 318 316 315 313 312 311 310 309 307 307 305 304 303 302 301 301 300 300 299 299 298 298 297 296 295 294 293 291 290 289 288 287 287
340 339 339 339 339 339 337 335 332 330 329 329 329 328 327 326 325 324 323 322 320 319 317 317 315 314 313 312 311 309 308 307 306 305 304 303 303 302 302 301 300 298 297 296 295 293 292 291 290 290 289 288
345 345 345 345 344 341 339 337 335 335 335 334 333 333 332 330 328 327 325 323 321 320 319 317 316 315 314 313 311 309 308 307 306 306 305 304 304 303 303 302 301 299 298 297 296 295 294 293 293 292 291 290
348 348 348 347 345 343 342 341 340 340 339 337 336 335 332 330 328 326 323 322 320 319 317 316 314 313 312 310 309 308 307 306 306 306 305 305 305 304 302 302 300 299 298 297 296 296 295 295 294 293 292 291
349 349 349 348 347 346 344 342 342 340 339 337 335 332 329 327 325 323 321 320 319 317 316 314 312 311 311 310 309 308 308 307 307 307 307 306 306 305 303 302 301 299 298 297 296 296 295 294 293 292 291 290
350 350 349 348 346 344 342 341 340 338 336 333 331 328 327 325 323 322 321 320 319 317 316 316 315 315 315 314 312 310 309 309 308 308 307 306 305 304 303 302 300 299 298 297 297 295 294 293 292 290 289 288
350 349 348 346 344 342 340 339 337 335 333 331 329 328 326 325 324 323 322 321 320 320 320 320 319 319 317 316 314 311 310 309 308 307 305 304 303 302 300 299 298 297 296 296 295 295 294 293 292 291 289 287
347 346 344 343 341 340 339 337 336 334 332 331 329 328 327 326 325 323 322 322 322 322 321 321 320 319 318 316 314 312 311 310 309 307 305 303 302 300 299 297 296 295 294 294 294 293 293 293 292 291 290 288
344 342 341 340 339 338 337 336 335 333 331 329 327 326 325 324 323 322 322 323 323 323 322 322 320 319 318 316 314 313 311 310 309 307 306 304 303 301 299 298 297 296 295 294 294 294 293 292 291 291 289 287
341 341 339 338 337 336 335 335 333 331 329 327 325 324 323 323 323 324 324 325 325 324 323 322 321 320 319 317 315 314 313 312 310 309 308 307 305 304 302 301 300 299 298 297 296 295 294 294 293 292 290 289
339 338 337 335 334 334 334 333 332 329 327 325 323 323 324 325 325 326 326 326 325 324 324 323 322 321 319 318 317 316 315 314 314 312 311 310 309 308 306 305 304 303 301 300 299 299 298 297 296 294 293 292
336 335 335 334 333 333 332 331 329 326 324 323 323 325 326 327 327 327 327 326 325 324 323 323 322 321 321 320 319 319 318 318 317 316 315 314 313 312 311 310 309 308 307 307 305 304 303 301 300 299 298 297
333 334 334 333 332 331 329 326 324 322 322 323 325 326 327 327 327 327 326 325 324 323 323 323 322 322 322 322 321 321 321 320 319 318 317 317 316 315 314 313 312 311 310 309 308 307 307 306 305 304 303 302
332 332 331 330 328 326 323 321 320 321 323 325 326 326 327 327 327 326 325 324 324 324 324 324 324 324 324 324 323 323 322 321 320 319 318 318 317 316 315 314 312 311 309 308 307 307 307 306 306 306 307 306
329 328 326 325 323 320 319 319 321 323 324 325 326 327 327 326 326 325 325 325 325 326 326 326 326 326 326 325 324 323 322 321 320 320 319 319 318 317 316 314 313 311 310 308 307 306 305 305 306 307 308 308
324 323 321 319 318 317 318 320 322 324 326 326 326 326 325 324 324 325 325 326 327 328 328 328 327 327 327 326 325 324 323 322 322 321 321 320 319 319 319 318 317 316 314 313 312 312 310 309 308 308 309 309
321 319 318 316 316 317 319 321 323 325 325 325 324 323 323 324 325 326 327 328 329 329 329 329 329 328 327 327 326 326 325 325 324 324 323 323 323 324 324 324 324 323 323 322 321 320 318 316 315 313 313 313
318 316 316 316 317 319 321 322 323 323 323 322 321 323 325 326 327 329 330 331 331 331 331 331 330 330 329 328 328 328 328 327 327 328 328 329 330 331 332 333 333 334 334 333 331 329 328 326 324 323 322 322
316 316 316 317 318 320 320 320 320 320 320 322 324 326 328 329 330 332 332 332 332 332 332 332 331 331 330 330 330 330 330 332 333 335 336 337 338 339 340 341 343 343 342 340 339 338 335 333 332 331 331 330
315 315 316 316 318 319 319 319 320 321 323 326 328 329 330 331 332 333 333 333 333 333 333 333 332 332 331 332 333 335 337 340 341 343 344 345 346 347 348 348 348 348 347 346 345 342 339 337 335 333 333 331
314 314 314 316 318 319 320 321 322 325 327 329 329 331 332 333 333 334 334 335 335 335 334 334 334 334 335 337 340 343 345 347 349 350 351 352 352 352 353 352 352 352 352 351 349 346 343 340 335 331 331 330